M I D A S
Marine Information and Data Acquisition System
Tripno 2061 of the Zeeleeuw from 2011-03-21 07:44:49 to 2011-03-21 15:48:16
Back to CruiseResearch ActivitiesStationsMapUnderway DataData graphs

EquipmentUnitsComments
TimeDGPSUTC
LatitudeDGPSDM.mWGS84
LongitudeDGPSDM.mWGS84
SpeedMeteo Stationm/sRelative wind speed
DirectionMeteo StationdegRelative wind direction
TemperatureMeteo Stationdeg CelciusAir temperature
PressureMeteo StationPaAtmospheric pressure
HumidityMeteo Station%Relative humidity
Missing or incorrect values are displayed as -999
Metereological data collected by the RV Zeeleeuw from 2011-03-21 07:44:43 to 2011-03-21 15:49:14
Time Latitude Longitude Speed Direction Temperature Pressure Humidity
2011-03-21 07:45 51°13.677 2°55.896 -999 23 4.9 103520 45
2011-03-21 07:46 51°13.692 2°55.797 -999 23 4.8 103530 46
2011-03-21 07:47 51°13.702 2°55.78 0.1 355 4.9 103530 46
2011-03-21 07:48 51°13.711 2°55.766 0.1 21 5 103530 46
2011-03-21 07:49 51°13.762 2°55.704 -999 319 5.1 103530 46
2011-03-21 07:50 51°13.854 2°55.62 -999 321 5.2 103530 46
2011-03-21 07:51 51°13.961 2°55.542 -999 328 5.2 103530 45
2011-03-21 07:52 51°14.072 2°55.462 0.1 324 5.2 103530 45
2011-03-21 07:53 51°14.177 2°55.376 -999 329 5.2 103530 43
2011-03-21 07:54 51°14.28 2°55.278 -999 328 5.3 103530 44
2011-03-21 07:55 51°14.395 2°55.16 -999 332 5.4 103520 44
2011-03-21 07:56 51°14.536 2°55.013 1.9 326 5.6 103520 44
2011-03-21 07:57 51°14.67 2°54.837 3.8 316 5.7 103520 43
2011-03-21 07:58 51°14.828 2°54.661 0.4 316 5.8 103520 42
2011-03-21 07:59 51°15.003 2°54.491 -999 318 5.7 103520 42
2011-03-21 08:00 51°15.16 2°54.277 -999 315 5.7 103520 43
2011-03-21 08:01 51°15.316 2°54.056 -999 317 5.6 103520 42
2011-03-21 08:02 51°15.477 2°53.843 -999 318 5.5 103520 44
2011-03-21 08:03 51°15.638 2°53.631 -999 318 5.5 103520 45
2011-03-21 08:04 51°15.807 2°53.442 -999 318 5.5 103520 46
2011-03-21 08:05 51°15.985 2°53.284 -999 319 5.5 103520 46
2011-03-21 08:06 51°16.16 2°53.12 -999 317 5.5 103530 46
2011-03-21 08:07 51°16.337 2°52.965 -999 321 5.6 103520 45
2011-03-21 08:08 51°16.515 2°52.82 -999 319 5.7 103520 45
2011-03-21 08:09 51°16.698 2°52.699 -999 322 5.8 103530 44
2011-03-21 08:10 51°16.871 2°52.567 -999 317 5.9 103520 46
2011-03-21 08:11 51°17.052 2°52.471 -999 319 5.9 103530 45
2011-03-21 08:12 51°17.229 2°52.353 -999 319 5.9 103530 45
2011-03-21 08:13 51°17.408 2°52.236 -999 317 5.9 103530 45
2011-03-21 08:14 51°17.585 2°52.111 -999 318 5.9 103520 45
2011-03-21 08:15 51°17.762 2°51.995 -999 316 6 103520 45
2011-03-21 08:16 51°17.937 2°51.868 -999 320 6 103530 45
2011-03-21 08:17 51°18.123 2°51.741 -999 319 6 103530 44
2011-03-21 08:18 51°18.31 2°51.607 -999 319 6 103530 45
2011-03-21 08:19 51°18.5 2°51.472 -999 319 6.1 103530 46
2011-03-21 08:20 51°18.688 2°51.326 -999 318 6.1 103530 45
2011-03-21 08:21 51°18.877 2°51.18 -999 318 6.1 103530 45
2011-03-21 08:22 51°19.063 2°51.027 -999 319 6.1 103530 45
2011-03-21 08:23 51°19.248 2°50.874 -999 318 6.1 103530 45
2011-03-21 08:24 51°19.434 2°50.721 -999 318 6.2 103530 46
2011-03-21 08:25 51°19.623 2°50.579 -999 318 6.2 103530 45
2011-03-21 08:26 51°19.813 2°50.435 -999 318 6.2 103530 46
2011-03-21 08:27 51°20.005 2°50.287 -999 319 6.2 103530 46
2011-03-21 08:28 51°20.197 2°50.134 -999 322 6.3 103530 47
2011-03-21 08:29 51°20.39 2°49.979 -999 322 6.4 103530 47
2011-03-21 08:30 51°20.587 2°49.839 -999 321 6.4 103540 47
2011-03-21 08:31 51°20.786 2°49.697 -999 320 6.4 103540 47
2011-03-21 08:32 51°20.984 2°49.555 -999 320 6.4 103540 47
2011-03-21 08:33 51°21.183 2°49.415 -999 320 6.4 103540 46
2011-03-21 08:34 51°21.383 2°49.278 -999 323 6.5 103540 47
2011-03-21 08:35 51°21.582 2°49.141 -999 323 6.5 103540 47
2011-03-21 08:36 51°21.783 2°49.002 -999 321 6.5 103540 47
2011-03-21 08:37 51°21.984 2°48.865 -999 323 6.5 103540 48
2011-03-21 08:38 51°22.188 2°48.732 -999 322 6.5 103550 48
2011-03-21 08:39 51°22.394 2°48.697 -999 330 6.6 103550 48
2011-03-21 08:40 51°22.593 2°48.69 -999 328 6.5 103540 48
2011-03-21 08:41 51°22.788 2°48.673 -999 330 6.6 103540 47
2011-03-21 08:42 51°22.983 2°48.652 -999 330 6.6 103540 48
2011-03-21 08:43 51°23.178 2°48.62 -999 324 6.6 103540 48
2011-03-21 08:44 51°23.366 2°48.479 2.2 318 6.6 103530 47
2011-03-21 08:45 51°23.551 2°48.311 -999 318 6.6 103530 48
2011-03-21 08:46 51°23.733 2°48.136 -999 318 6.6 103530 47
2011-03-21 08:47 51°23.907 2°47.942 -999 24 6.6 103520 47
2011-03-21 08:48 51°24.078 2°47.742 0.1 23 6.6 103520 47
2011-03-21 08:49 51°24.252 2°47.548 -999 23 6.5 103520 46
2011-03-21 08:50 51°24.424 2°47.346 0.1 23 6.5 103520 47
2011-03-21 08:51 51°24.596 2°47.136 0.4 20 6.5 103520 48
2011-03-21 08:52 51°24.769 2°46.925 0.2 27 6.5 103520 48
2011-03-21 08:53 51°24.942 2°46.715 3.1 22 6.5 103510 48
2011-03-21 08:54 51°25.114 2°46.506 2.9 23 6.4 103510 47
2011-03-21 08:55 51°25.29 2°46.306 1.4 21 6.4 103510 48
2011-03-21 08:56 51°25.477 2°46.163 1.6 25 6.5 103510 48
2011-03-21 08:57 51°25.66 2°46.008 1.4 19 6.5 103510 47
2011-03-21 08:58 51°25.844 2°45.866 1 20 6.5 103510 48
2011-03-21 08:59 51°26.03 2°45.73 0.1 18 6.5 103510 48
2011-03-21 09:00 51°26.215 2°45.592 1.2 25 6.5 103510 48
2011-03-21 09:01 51°26.399 2°45.45 0.8 27 6.6 103510 48
2011-03-21 09:02 51°26.585 2°45.306 2 25 6.6 103510 49
2011-03-21 09:03 51°26.773 2°45.163 1.3 27 6.6 103510 48
2011-03-21 09:04 51°26.962 2°45.021 0.8 21 6.6 103510 48
2011-03-21 09:05 51°27.152 2°44.888 1 20 6.6 103510 48
2011-03-21 09:06 51°27.341 2°44.754 -999 23 6.6 103520 49
2011-03-21 09:07 51°27.53 2°44.624 -999 23 6.6 103520 49
2011-03-21 09:08 51°27.718 2°44.48 -999 23 6.6 103520 49
2011-03-21 09:09 51°27.907 2°44.332 1.7 18 6.6 103520 48
2011-03-21 09:10 51°28.095 2°44.188 2.4 19 6.7 103520 48
2011-03-21 09:11 51°28.284 2°44.053 1.6 20 6.7 103520 49
2011-03-21 09:12 51°28.47 2°43.916 -999 23 6.7 103520 49
2011-03-21 09:13 51°28.656 2°43.782 -999 23 6.7 103520 48
2011-03-21 09:14 51°28.842 2°43.651 -999 26 6.7 103520 49
2011-03-21 09:15 51°29.025 2°43.511 2.1 18 6.7 103520 49
2011-03-21 09:16 51°29.204 2°43.359 2.2 25 6.8 103520 49
2011-03-21 09:17 51°29.383 2°43.207 3 24 6.8 103520 48
2011-03-21 09:18 51°29.568 2°43.104 0.2 327 6.8 103520 49
2011-03-21 09:19 51°29.736 2°43.221 0.9 348 6.8 103520 50
2011-03-21 09:20 51°29.904 2°43.339 -999 344 6.7 103520 49
2011-03-21 09:21 51°30.081 2°43.436 -999 341 6.7 103520 49
2011-03-21 09:22 51°30.257 2°43.527 -999 340 6.7 103520 50
2011-03-21 09:23 51°30.432 2°43.617 -999 340 6.7 103520 50
2011-03-21 09:24 51°30.607 2°43.704 -999 336 6.7 103510 50
2011-03-21 09:25 51°30.782 2°43.79 -999 338 6.7 103510 50
2011-03-21 09:26 51°30.958 2°43.876 -999 333 6.8 103510 50
2011-03-21 09:27 51°31.133 2°43.962 0.1 338 6.9 103510 50
2011-03-21 09:28 51°31.309 2°44.045 -999 336 7 103510 51
2011-03-21 09:29 51°31.485 2°44.129 -999 340 7 103510 50
2011-03-21 09:30 51°31.661 2°44.208 -999 330 7.1 103510 51
2011-03-21 09:31 51°31.836 2°44.286 -999 328 7.2 103510 51
2011-03-21 09:32 51°32.012 2°44.363 -999 323 7.3 103510 51
2011-03-21 09:33 51°32.188 2°44.441 -999 332 7.4 103510 51
2011-03-21 09:34 51°32.363 2°44.52 0.1 327 7.5 103510 50
2011-03-21 09:35 51°32.538 2°44.601 -999 332 7.5 103510 50
2011-03-21 09:36 51°32.714 2°44.685 -999 329 7.6 103510 50
2011-03-21 09:37 51°32.889 2°44.767 -999 329 7.7 103520 49
2011-03-21 09:38 51°33.065 2°44.851 -999 325 7.7 103520 50
2011-03-21 09:39 51°33.24 2°44.937 -999 331 7.8 103520 50
2011-03-21 09:40 51°33.416 2°45.021 -999 331 7.7 103520 49
2011-03-21 09:41 51°33.591 2°45.109 -999 325 7.8 103520 49
2011-03-21 09:42 51°33.765 2°45.195 -999 333 7.8 103520 50
2011-03-21 09:43 51°33.938 2°45.283 -999 335 7.8 103520 49
2011-03-21 09:44 51°34.112 2°45.373 -999 332 7.8 103510 49
2011-03-21 09:45 51°34.288 2°45.462 -999 336 7.7 103510 48
2011-03-21 09:46 51°34.463 2°45.551 -999 337 7.7 103510 49
2011-03-21 09:47 51°34.64 2°45.636 -999 330 7.6 103510 50
2011-03-21 09:48 51°34.818 2°45.723 0.1 327 7.6 103510 50
2011-03-21 09:49 51°34.996 2°45.805 -999 330 7.6 103500 50
2011-03-21 09:50 51°35.173 2°45.892 0.1 322 7.6 103510 50
2011-03-21 09:51 51°35.354 2°45.971 -999 324 7.7 103500 50
2011-03-21 09:52 51°35.535 2°46.051 -999 326 7.7 103500 50
2011-03-21 09:53 51°35.717 2°46.131 -999 325 7.9 103500 49
2011-03-21 09:54 51°35.899 2°46.214 -999 322 7.9 103490 50
2011-03-21 09:55 51°36.081 2°46.297 0.1 324 7.9 103490 50
2011-03-21 09:56 51°36.264 2°46.384 -999 320 7.9 103490 50
2011-03-21 09:57 51°36.447 2°46.468 -999 328 7.9 103490 50
2011-03-21 09:58 51°36.629 2°46.558 0.2 337 8 103500 50
2011-03-21 09:59 51°36.811 2°46.654 0.1 325 8 103510 50
2011-03-21 10:00 51°36.992 2°46.747 -999 329 7.9 103510 50
2011-03-21 10:01 51°37.174 2°46.841 -999 329 8 103510 49
2011-03-21 10:02 51°37.354 2°46.94 -999 330 8 103510 50
2011-03-21 10:03 51°37.532 2°47.054 -999 330 8 103500 50
2011-03-21 10:04 51°37.705 2°47.176 -999 333 8 103500 50
2011-03-21 10:05 51°37.876 2°47.289 -999 333 8 103500 50
2011-03-21 10:06 51°38.031 2°47.396 -999 331 8.1 103510 50
2011-03-21 10:07 51°38.185 2°47.508 -999 331 8.1 103510 50
2011-03-21 10:08 51°38.338 2°47.614 -999 320 8.2 103500 50
2011-03-21 10:09 51°38.494 2°47.7 -999 336 8.2 103500 49
2011-03-21 10:10 51°38.646 2°47.811 0.1 330 8.2 103500 50
2011-03-21 10:11 51°38.806 2°47.894 -999 321 8.2 103500 49
2011-03-21 10:12 51°38.964 2°47.986 -999 331 8.2 103500 50
2011-03-21 10:13 51°39.121 2°48.08 -999 327 8.3 103500 50
2011-03-21 10:14 51°39.28 2°48.169 0.1 328 8.3 103500 50
2011-03-21 10:15 51°39.438 2°48.259 -999 327 8.4 103510 49
2011-03-21 10:16 51°39.59 2°48.371 -999 330 8.4 103510 49
2011-03-21 10:17 51°39.749 2°48.46 -999 330 8.4 103510 49
2011-03-21 10:18 51°39.906 2°48.553 -999 326 8.5 103510 50
2011-03-21 10:19 51°40.062 2°48.64 -999 333 8.5 103500 50
2011-03-21 10:20 51°40.215 2°48.746 -999 337 8.6 103500 49
2011-03-21 10:21 51°40.374 2°48.854 -999 335 8.4 103510 49
2011-03-21 10:22 51°40.531 2°48.941 -999 336 8.3 103510 50
2011-03-21 10:23 51°40.692 2°49.043 -999 333 8.4 103510 50
2011-03-21 10:24 51°40.851 2°49.139 -999 333 8.4 103510 50
2011-03-21 10:25 51°41.012 2°49.23 -999 334 8.3 103510 49
2011-03-21 10:26 51°41.17 2°49.33 0.1 333 8.4 103510 50
2011-03-21 10:27 51°41.327 2°49.421 -999 328 8.4 103510 50
2011-03-21 10:28 51°41.494 2°49.494 -999 325 8.5 103520 50
2011-03-21 10:29 51°41.654 2°49.58 -999 331 8.6 103510 50
2011-03-21 10:30 51°41.806 2°49.696 -999 343 8.6 103510 49
2011-03-21 10:31 51°41.952 2°49.78 2.5 22 8.4 103510 49
2011-03-21 10:32 51°42.072 2°49.565 6.3 19 8.1 103490 48
2011-03-21 10:33 51°42.183 2°49.309 5.7 22 8 103490 49
2011-03-21 10:34 51°42.293 2°49.048 6.4 22 7.9 103490 50
2011-03-21 10:35 51°42.407 2°48.793 5.6 28 7.7 103490 49
2011-03-21 10:36 51°42.516 2°48.533 7 26 7.7 103490 49
2011-03-21 10:37 51°42.471 2°48.253 8.3 331 7.6 103480 48
2011-03-21 10:38 51°42.267 2°48.12 8.5 332 7.5 103480 49
2011-03-21 10:39 51°42.038 2°47.984 9 334 7.5 103480 51
2011-03-21 10:40 51°41.804 2°47.873 9.4 333 7.4 103480 51
2011-03-21 10:41 51°41.571 2°47.756 9.9 333 7.4 103470 50
2011-03-21 10:42 51°41.344 2°47.609 9.2 331 7.3 103480 50
2011-03-21 10:43 51°41.118 2°47.461 12.1 332 7.3 103480 50
2011-03-21 10:44 51°40.89 2°47.319 12.1 332 7.2 103480 51
2011-03-21 10:45 51°40.659 2°47.196 9.7 333 7.2 103480 51
2011-03-21 10:46 51°40.429 2°47.07 10.2 332 7.2 103490 50
2011-03-21 10:47 51°40.2 2°46.945 9.3 332 7.2 103490 51
2011-03-21 10:48 51°39.971 2°46.822 9.9 332 7.2 103500 51
2011-03-21 10:49 51°39.741 2°46.699 9.8 333 7.2 103490 51
2011-03-21 10:50 51°39.511 2°46.575 11.6 331 7.2 103490 51
2011-03-21 10:51 51°39.281 2°46.451 11.7 332 7.2 103490 51
2011-03-21 10:52 51°39.05 2°46.329 11.7 333 7.2 103490 51
2011-03-21 10:53 51°38.82 2°46.209 11.7 332 7.2 103490 50
2011-03-21 10:54 51°38.591 2°46.089 11.1 332 7.2 103490 51
2011-03-21 10:55 51°38.362 2°45.968 11.3 333 7.2 103490 51
2011-03-21 10:56 51°38.134 2°45.848 9 333 7.2 103490 50
2011-03-21 10:57 51°37.905 2°45.725 11.1 334 7.2 103490 50
2011-03-21 10:58 51°37.677 2°45.603 11.4 333 7.2 103490 51
2011-03-21 10:59 51°37.449 2°45.482 8.6 332 7.2 103500 51
2011-03-21 11:00 51°37.221 2°45.362 10.8 332 7.3 103490 51
2011-03-21 11:01 51°36.994 2°45.234 4.4 331 7.3 103500 51
2011-03-21 11:02 51°36.768 2°45.104 11.3 333 7.2 103490 51
2011-03-21 11:03 51°36.541 2°44.981 11.3 332 7.2 103490 51
2011-03-21 11:04 51°36.313 2°44.865 11.9 332 7.2 103490 51
2011-03-21 11:05 51°36.085 2°44.748 9.5 332 7.2 103500 50
2011-03-21 11:06 51°35.857 2°44.631 9.3 333 7.2 103490 51
2011-03-21 11:07 51°35.63 2°44.515 10.6 332 7.2 103490 51
2011-03-21 11:08 51°35.404 2°44.394 8.7 332 7.2 103490 50
2011-03-21 11:09 51°35.181 2°44.259 8.4 331 7.2 103490 51
2011-03-21 11:10 51°34.956 2°44.127 8.4 332 7.2 103490 51
2011-03-21 11:11 51°34.731 2°43.998 7.9 331 7.2 103490 51
2011-03-21 11:12 51°34.505 2°43.869 10.5 330 7.2 103490 51
2011-03-21 11:13 51°34.28 2°43.741 10.3 331 7.2 103490 50
2011-03-21 11:14 51°34.054 2°43.61 8.5 331 7.2 103500 51
2011-03-21 11:15 51°33.827 2°43.489 8.5 331 7.2 103490 50
2011-03-21 11:16 51°33.6 2°43.374 10.9 329 7.2 103500 50
2011-03-21 11:17 51°33.374 2°43.255 10 330 7.2 103500 50
2011-03-21 11:18 51°33.151 2°43.131 9.7 326 7.2 103500 50
2011-03-21 11:19 51°33.004 2°42.853 8.8 323 7.2 103490 51
2011-03-21 11:20 51°32.876 2°42.542 10.2 322 7.3 103500 50
2011-03-21 11:21 51°32.749 2°42.23 7.9 322 7.4 103500 49
2011-03-21 11:22 51°32.621 2°41.919 9.8 322 7.4 103500 50
2011-03-21 11:23 51°32.496 2°41.606 10.3 322 7.5 103500 49
2011-03-21 11:24 51°32.371 2°41.292 10.3 321 7.5 103500 50
2011-03-21 11:25 51°32.248 2°40.979 11.1 323 7.5 103490 50
2011-03-21 11:26 51°32.124 2°40.666 10 322 7.6 103500 50
2011-03-21 11:27 51°32.074 2°40.335 7.3 22 7.5 103490 49
2011-03-21 11:28 51°32.244 2°40.234 -999 328 7.5 103510 49
2011-03-21 11:29 51°32.444 2°40.272 -999 328 7.5 103510 49
2011-03-21 11:30 51°32.645 2°40.315 -999 326 7.6 103510 49
2011-03-21 11:31 51°32.841 2°40.389 -999 333 7.6 103510 49
2011-03-21 11:32 51°33.028 2°40.509 -999 339 7.6 103510 49
2011-03-21 11:33 51°33.212 2°40.654 -999 335 7.6 103510 49
2011-03-21 11:34 51°33.397 2°40.794 -999 338 7.6 103510 49
2011-03-21 11:35 51°33.581 2°40.935 -999 338 7.6 103510 50
2011-03-21 11:36 51°33.762 2°41.076 -999 339 7.6 103500 49
2011-03-21 11:37 51°33.949 2°41.223 -999 336 7.6 103500 49
2011-03-21 11:38 51°34.143 2°41.332 -999 335 7.6 103500 50
2011-03-21 11:39 51°34.339 2°41.433 -999 335 7.6 103500 50
2011-03-21 11:40 51°34.537 2°41.533 -999 334 7.7 103500 50
2011-03-21 11:41 51°34.735 2°41.635 -999 336 7.7 103500 50
2011-03-21 11:42 51°34.936 2°41.735 -999 336 7.7 103490 50
2011-03-21 11:43 51°35.136 2°41.838 -999 336 7.7 103500 50
2011-03-21 11:44 51°35.337 2°41.942 -999 336 7.8 103490 50
2011-03-21 11:45 51°35.539 2°42.046 -999 335 7.7 103490 49
2011-03-21 11:46 51°35.74 2°42.149 -999 335 7.8 103490 50
2011-03-21 11:47 51°35.941 2°42.251 -999 336 7.8 103490 50
2011-03-21 11:48 51°36.142 2°42.354 -999 335 7.8 103490 50
2011-03-21 11:49 51°36.345 2°42.456 -999 333 7.9 103490 50
2011-03-21 11:50 51°36.546 2°42.559 -999 333 7.8 103490 50
2011-03-21 11:51 51°36.749 2°42.658 -999 334 7.9 103490 50
2011-03-21 11:52 51°36.951 2°42.759 -999 335 7.9 103490 50
2011-03-21 11:53 51°37.154 2°42.86 -999 337 8 103490 49
2011-03-21 11:54 51°37.352 2°42.961 -999 335 8 103490 50
2011-03-21 11:55 51°37.558 2°43.064 -999 335 8 103490 50
2011-03-21 11:56 51°37.761 2°43.165 -999 333 8 103490 50
2011-03-21 11:57 51°37.965 2°43.266 -999 331 8 103490 50
2011-03-21 11:58 51°38.17 2°43.366 -999 333 8 103480 50
2011-03-21 11:59 51°38.374 2°43.467 -999 332 8.1 103480 50
2011-03-21 12:00 51°38.579 2°43.568 -999 335 8.1 103480 50
2011-03-21 12:01 51°38.784 2°43.671 -999 332 8.2 103480 49
2011-03-21 12:02 51°38.99 2°43.771 -999 329 8.2 103480 49
2011-03-21 12:03 51°39.196 2°43.871 -999 332 8.2 103480 49
2011-03-21 12:04 51°39.403 2°43.971 -999 329 8.2 103490 49
2011-03-21 12:05 51°39.609 2°44.074 -999 335 8.3 103480 49
2011-03-21 12:06 51°39.817 2°44.176 -999 332 8.3 103480 49
2011-03-21 12:07 51°40.024 2°44.288 -999 337 8.3 103480 49
2011-03-21 12:08 51°40.228 2°44.42 -999 337 8.2 103490 49
2011-03-21 12:09 51°40.433 2°44.548 -999 333 8.1 103480 48
2011-03-21 12:10 51°40.638 2°44.675 -999 334 8 103490 49
2011-03-21 12:11 51°40.844 2°44.802 -999 337 8 103480 49
2011-03-21 12:12 51°41.047 2°44.927 -999 334 7.9 103490 50
2011-03-21 12:13 51°41.258 2°45.056 -999 333 7.9 103480 50
2011-03-21 12:14 51°41.462 2°45.181 -999 334 7.9 103490 50
2011-03-21 12:15 51°41.673 2°45.312 -999 333 7.9 103480 50
2011-03-21 12:16 51°41.882 2°45.44 -999 334 8 103490 51
2011-03-21 12:17 51°42.087 2°45.563 -999 331 8 103490 50
2011-03-21 12:18 51°42.298 2°45.695 -999 334 8 103480 50
2011-03-21 12:19 51°42.502 2°45.819 -999 330 8 103480 50
2011-03-21 12:20 51°42.715 2°45.947 -999 330 8 103480 50
2011-03-21 12:21 51°42.921 2°46.075 -999 331 8 103480 50
2011-03-21 12:22 51°43.134 2°46.208 -999 330 8.1 103480 50
2011-03-21 12:23 51°43.34 2°46.286 -999 23 8.1 103480 50
2011-03-21 12:24 51°43.492 2°46.067 6.7 27 8 103470 49
2011-03-21 12:25 51°43.621 2°45.799 6.3 25 7.9 103470 49
2011-03-21 12:26 51°43.753 2°45.535 6.3 29 7.7 103470 50
2011-03-21 12:27 51°43.882 2°45.274 6.5 26 7.6 103470 50
2011-03-21 12:28 51°44.016 2°45.01 6.6 20 7.5 103470 49
2011-03-21 12:29 51°44.15 2°44.741 5.9 21 7.5 103460 49
2011-03-21 12:30 51°44.282 2°44.483 6.1 23 7.5 103460 51
2011-03-21 12:31 51°44.416 2°44.213 5.6 21 7.4 103460 51
2011-03-21 12:32 51°44.478 2°43.923 7.5 321 7.4 103460 50
2011-03-21 12:33 51°44.307 2°43.778 11.2 330 7.5 103450 49
2011-03-21 12:34 51°44.101 2°43.723 10.9 334 7.5 103450 50
2011-03-21 12:35 51°43.881 2°43.732 8.5 333 7.5 103450 51
2011-03-21 12:36 51°43.665 2°43.738 10.1 333 7.5 103450 51
2011-03-21 12:37 51°43.452 2°43.742 9.3 332 7.6 103450 51
2011-03-21 12:38 51°43.232 2°43.743 9.3 332 7.5 103450 50
2011-03-21 12:39 51°43.028 2°43.683 8.5 330 7.5 103450 51
2011-03-21 12:40 51°42.824 2°43.581 9.3 329 7.5 103450 51
2011-03-21 12:41 51°42.625 2°43.478 8.6 329 7.5 103450 49
2011-03-21 12:42 51°42.427 2°43.375 9.3 329 7.5 103450 50
2011-03-21 12:43 51°42.232 2°43.274 9.8 329 7.5 103450 51
2011-03-21 12:44 51°42.031 2°43.174 8.6 330 7.5 103450 51
2011-03-21 12:45 51°41.837 2°43.074 10.1 329 7.5 103460 50
2011-03-21 12:46 51°41.636 2°42.974 10 329 7.5 103450 50
2011-03-21 12:47 51°41.439 2°42.876 9.6 330 7.5 103450 50
2011-03-21 12:48 51°41.243 2°42.781 8.1 329 7.5 103450 50
2011-03-21 12:49 51°41.049 2°42.684 9.5 330 7.5 103460 50
2011-03-21 12:50 51°40.86 2°42.589 7.8 328 7.5 103450 51
2011-03-21 12:51 51°40.663 2°42.495 8.2 329 7.5 103450 51
2011-03-21 12:52 51°40.472 2°42.406 8.9 329 7.5 103460 50
2011-03-21 12:53 51°40.275 2°42.309 7.3 330 7.5 103460 50
2011-03-21 12:54 51°40.083 2°42.216 9.7 330 7.5 103450 51
2011-03-21 12:55 51°39.889 2°42.123 8.8 329 7.5 103450 51
2011-03-21 12:56 51°39.699 2°42.034 9.7 330 7.5 103450 50
2011-03-21 12:57 51°39.502 2°41.942 8 330 7.5 103450 50
2011-03-21 12:58 51°39.309 2°41.854 8.7 330 7.5 103450 51
2011-03-21 12:59 51°39.121 2°41.762 10.1 329 7.5 103440 50
2011-03-21 13:00 51°38.932 2°41.653 9.3 330 7.5 103440 50
2011-03-21 13:01 51°38.748 2°41.557 8.4 329 7.5 103440 50
2011-03-21 13:02 51°38.563 2°41.465 8.6 328 7.5 103450 51
2011-03-21 13:03 51°38.379 2°41.358 10 331 7.5 103440 51
2011-03-21 13:04 51°38.192 2°41.257 7.8 331 7.5 103440 51
2011-03-21 13:05 51°38.005 2°41.156 8.6 330 7.5 103440 49
2011-03-21 13:06 51°37.816 2°41.055 8.6 330 7.5 103440 51
2011-03-21 13:07 51°37.634 2°40.956 9.3 330 7.5 103440 51
2011-03-21 13:08 51°37.448 2°40.857 9.3 330 7.5 103440 51
2011-03-21 13:09 51°37.26 2°40.755 8.1 330 7.5 103440 50
2011-03-21 13:10 51°37.075 2°40.656 7.9 330 7.5 103440 51
2011-03-21 13:11 51°36.893 2°40.558 9.5 330 7.5 103440 51
2011-03-21 13:12 51°36.706 2°40.453 9.3 330 7.5 103440 50
2011-03-21 13:13 51°36.525 2°40.353 9.5 331 7.6 103440 50
2011-03-21 13:14 51°36.337 2°40.251 7.8 328 7.5 103440 51
2011-03-21 13:15 51°36.153 2°40.157 7.7 331 7.6 103440 50
2011-03-21 13:16 51°35.965 2°40.061 9.1 332 7.5 103440 50
2011-03-21 13:17 51°35.784 2°39.972 7.5 329 7.5 103430 50
2011-03-21 13:18 51°35.599 2°39.876 9.2 331 7.5 103430 50
2011-03-21 13:19 51°35.42 2°39.783 7.3 332 7.5 103430 51
2011-03-21 13:20 51°35.235 2°39.69 7.5 330 7.5 103430 50
2011-03-21 13:21 51°35.057 2°39.6 6.3 330 7.5 103440 50
2011-03-21 13:22 51°34.873 2°39.509 7.8 332 7.5 103430 51
2011-03-21 13:23 51°34.692 2°39.417 7.1 332 7.5 103430 51
2011-03-21 13:24 51°34.515 2°39.324 8.3 331 7.5 103430 50
2011-03-21 13:25 51°34.331 2°39.232 8.5 331 7.5 103430 51
2011-03-21 13:26 51°34.152 2°39.139 7 330 7.5 103430 51
2011-03-21 13:27 51°33.968 2°39.048 7.3 331 7.5 103430 51
2011-03-21 13:28 51°33.785 2°38.953 8 330 7.5 103430 50
2011-03-21 13:29 51°33.601 2°38.862 7.5 330 7.5 103430 50
2011-03-21 13:30 51°33.431 2°38.784 7.3 331 7.5 103440 51
2011-03-21 13:31 51°33.312 2°38.732 5.9 327 7.5 103440 50
2011-03-21 13:32 51°33.264 2°38.584 1.7 322 7.6 103440 52
2011-03-21 13:33 51°33.314 2°38.417 2.7 319 7.7 103440 52
2011-03-21 13:34 51°33.432 2°38.304 0.9 319 7.8 103440 50
2011-03-21 13:35 51°33.588 2°38.314 -999 325 7.9 103440 51
2011-03-21 13:36 51°33.74 2°38.443 -999 334 8 103440 51
2011-03-21 13:37 51°33.852 2°38.66 -999 342 8 103440 49
2011-03-21 13:38 51°33.888 2°38.929 3 343 8 103440 51
2011-03-21 13:39 51°33.836 2°39.153 4.5 339 7.9 103430 51
2011-03-21 13:40 51°33.727 2°39.275 5.1 334 7.9 103430 50
2011-03-21 13:41 51°33.613 2°39.265 4.6 328 7.9 103430 50
2011-03-21 13:42 51°33.487 2°39.141 7.8 328 7.8 103430 51
2011-03-21 13:43 51°33.332 2°38.958 7.3 330 7.8 103430 51
2011-03-21 13:44 51°33.18 2°38.793 8 331 7.8 103430 49
2011-03-21 13:45 51°33.004 2°38.667 7.7 331 7.7 103420 50
2011-03-21 13:46 51°32.837 2°38.541 8 331 7.7 103430 51
2011-03-21 13:47 51°32.652 2°38.451 7.8 333 7.6 103420 51
2011-03-21 13:48 51°32.467 2°38.385 6.9 331 7.6 103420 51
2011-03-21 13:49 51°32.279 2°38.317 7.8 331 7.6 103420 51
2011-03-21 13:50 51°32.091 2°38.252 7.9 331 7.6 103420 51
2011-03-21 13:51 51°31.907 2°38.172 8.1 331 7.6 103420 50
2011-03-21 13:52 51°31.725 2°38.075 7.4 331 7.5 103420 51
2011-03-21 13:53 51°31.548 2°37.98 6.7 331 7.5 103430 49
2011-03-21 13:54 51°31.371 2°37.894 6.4 331 7.5 103420 50
2011-03-21 13:55 51°31.192 2°37.803 6.3 331 7.5 103420 50
2011-03-21 13:56 51°31.01 2°37.718 6.7 331 7.5 103430 50
2011-03-21 13:57 51°30.832 2°37.647 8.2 330 7.5 103430 50
2011-03-21 13:58 51°30.655 2°37.552 8.3 331 7.5 103420 51
2011-03-21 13:59 51°30.479 2°37.46 7.4 331 7.5 103420 49
2011-03-21 14:00 51°30.303 2°37.371 7.9 331 7.6 103420 50
2011-03-21 14:01 51°30.124 2°37.283 7.9 330 7.6 103420 49
2011-03-21 14:02 51°29.947 2°37.191 6.1 331 7.6 103420 51
2011-03-21 14:03 51°29.769 2°37.1 7.9 330 7.6 103420 50
2011-03-21 14:04 51°29.594 2°37.013 7.7 330 7.6 103420 51
2011-03-21 14:05 51°29.418 2°36.925 7.5 330 7.6 103420 49
2011-03-21 14:06 51°29.241 2°36.839 6.7 329 7.6 103420 50
2011-03-21 14:07 51°29.064 2°36.75 6.4 329 7.7 103420 49
2011-03-21 14:08 51°28.881 2°36.759 5.9 333 7.7 103420 49
2011-03-21 14:09 51°28.742 2°37.021 6 334 7.7 103410 49
2011-03-21 14:10 51°28.593 2°37.299 7 333 7.8 103420 49
2011-03-21 14:11 51°28.433 2°37.531 5.9 332 7.7 103420 50
2011-03-21 14:12 51°28.262 2°37.752 6.6 333 7.7 103420 49
2011-03-21 14:13 51°28.097 2°37.962 7.1 332 7.6 103420 49
2011-03-21 14:14 51°27.926 2°38.177 5.8 333 7.6 103420 50
2011-03-21 14:15 51°27.762 2°38.388 6 332 7.6 103420 50
2011-03-21 14:16 51°27.594 2°38.607 7.6 331 7.6 103410 49
2011-03-21 14:17 51°27.432 2°38.825 7 333 7.6 103420 48
2011-03-21 14:18 51°27.269 2°39.042 6.4 332 7.6 103420 48
2011-03-21 14:19 51°27.108 2°39.265 6.2 332 7.6 103420 48
2011-03-21 14:20 51°26.964 2°39.527 6.4 333 7.6 103420 48
2011-03-21 14:21 51°26.82 2°39.783 5.1 333 7.7 103420 48
2011-03-21 14:22 51°26.674 2°40.046 5.2 333 7.7 103420 49
2011-03-21 14:23 51°26.524 2°40.312 3.9 332 7.7 103420 49
2011-03-21 14:24 51°26.378 2°40.569 3.4 332 7.8 103420 48
2011-03-21 14:25 51°26.221 2°40.809 3.7 333 7.8 103420 47
2011-03-21 14:26 51°26.064 2°41.047 3.5 334 7.9 103420 48
2011-03-21 14:27 51°25.903 2°41.28 3.3 332 7.9 103420 48
2011-03-21 14:28 51°25.74 2°41.506 3.3 331 7.9 103420 48
2011-03-21 14:29 51°25.582 2°41.74 2.7 332 7.9 103420 48
2011-03-21 14:30 51°25.423 2°41.972 6.2 332 7.8 103420 48
2011-03-21 14:31 51°25.264 2°42.204 5.1 331 7.8 103420 47
2011-03-21 14:32 51°25.102 2°42.44 4.8 330 7.8 103420 47
2011-03-21 14:33 51°24.945 2°42.668 4.8 330 7.8 103420 47
2011-03-21 14:34 51°24.784 2°42.909 4.8 328 7.8 103420 47
2011-03-21 14:35 51°24.613 2°43.11 4.9 328 7.8 103420 48
2011-03-21 14:36 51°24.443 2°43.309 5.8 328 7.8 103420 47
2011-03-21 14:37 51°24.27 2°43.52 5.7 327 7.7 103420 48
2011-03-21 14:38 51°24.1 2°43.723 5.8 328 7.8 103420 46
2011-03-21 14:39 51°23.925 2°43.932 5.3 329 7.8 103420 47
2011-03-21 14:40 51°23.754 2°44.137 5 328 7.8 103410 46
2011-03-21 14:41 51°23.577 2°44.344 4.7 328 7.8 103410 46
2011-03-21 14:42 51°23.405 2°44.542 5.4 329 7.9 103410 48
2011-03-21 14:43 51°23.229 2°44.739 4.9 328 7.9 103410 47
2011-03-21 14:44 51°23.055 2°44.943 5.7 326 7.9 103410 47
2011-03-21 14:45 51°22.882 2°45.145 5.1 327 7.9 103410 47
2011-03-21 14:46 51°22.714 2°45.273 2.8 334 7.9 103410 48
2011-03-21 14:47 51°22.581 2°45.168 3.4 338 7.9 103410 47
2011-03-21 14:48 51°22.442 2°45.06 3.6 338 7.9 103410 47
2011-03-21 14:49 51°22.271 2°44.942 4.4 337 7.9 103410 47
2011-03-21 14:50 51°22.077 2°44.917 4.3 333 7.9 103410 47
2011-03-21 14:51 51°21.884 2°45.039 4.7 327 7.9 103410 48
2011-03-21 14:52 51°21.712 2°45.261 3.9 332 7.9 103410 48
2011-03-21 14:53 51°21.558 2°45.504 5.1 323 7.9 103410 48
2011-03-21 14:54 51°21.4 2°45.752 4.7 322 8 103410 47
2011-03-21 14:55 51°21.249 2°46.022 5.3 322 8.1 103410 47
2011-03-21 14:56 51°21.104 2°46.278 4.4 322 8.1 103410 47
2011-03-21 14:57 51°20.948 2°46.528 4.6 322 8.1 103410 46
2011-03-21 14:58 51°20.787 2°46.753 5 322 8.1 103410 47
2011-03-21 14:59 51°20.618 2°46.989 4.7 323 8.1 103410 48
2011-03-21 15:00 51°20.455 2°47.214 4.7 323 8.1 103410 47
2011-03-21 15:01 51°20.289 2°47.442 4.3 322 8.1 103410 46
2011-03-21 15:02 51°20.126 2°47.674 3.6 321 8.1 103410 46
2011-03-21 15:03 51°19.958 2°47.906 3.5 321 8.1 103410 46
2011-03-21 15:04 51°19.796 2°48.131 4.3 319 8.2 103410 46
2011-03-21 15:05 51°19.63 2°48.366 3.4 320 8.2 103410 47
2011-03-21 15:06 51°19.467 2°48.595 3.8 319 8.2 103410 46
2011-03-21 15:07 51°19.306 2°48.825 4 318 8.2 103410 46
2011-03-21 15:08 51°19.147 2°49.046 4 318 8.2 103410 47
2011-03-21 15:09 51°18.982 2°49.269 2.8 319 8.1 103410 46
2011-03-21 15:10 51°18.814 2°49.492 2.9 320 8.1 103410 47
2011-03-21 15:11 51°18.65 2°49.707 3.3 319 8.2 103410 48
2011-03-21 15:12 51°18.484 2°49.928 3.2 319 8.2 103400 47
2011-03-21 15:13 51°18.317 2°50.148 3.7 319 8.2 103400 46
2011-03-21 15:14 51°18.151 2°50.373 3.3 319 8.2 103410 47
2011-03-21 15:15 51°17.984 2°50.594 3.6 319 8.2 103400 47
2011-03-21 15:16 51°17.818 2°50.819 2.5 318 8.2 103410 47
2011-03-21 15:17 51°17.658 2°51.037 3.1 318 8.2 103410 47
2011-03-21 15:18 51°17.497 2°51.262 2.7 317 8.2 103410 47
2011-03-21 15:19 51°17.334 2°51.483 3.2 318 8.1 103410 48
2011-03-21 15:20 51°17.167 2°51.701 2.8 320 8.1 103410 49
2011-03-21 15:21 51°17.001 2°51.921 3.1 321 8.1 103410 46
2011-03-21 15:22 51°16.833 2°52.141 2.8 320 8.1 103400 48
2011-03-21 15:23 51°16.662 2°52.364 3.2 319 8.2 103410 48
2011-03-21 15:24 51°16.499 2°52.594 3.6 317 8.2 103410 48
2011-03-21 15:25 51°16.337 2°52.821 3.3 317 8.2 103400 47
2011-03-21 15:26 51°16.166 2°53.038 3.3 318 8.1 103410 48
2011-03-21 15:27 51°15.997 2°53.245 3.3 321 8.1 103410 48
2011-03-21 15:28 51°15.826 2°53.459 4.1 320 8.2 103410 47
2011-03-21 15:29 51°15.654 2°53.674 4.3 320 8.1 103400 45
2011-03-21 15:30 51°15.475 2°53.885 4.8 321 8.2 103400 46
2011-03-21 15:31 51°15.301 2°54.09 2.9 322 8.2 103400 47
2011-03-21 15:32 51°15.124 2°54.291 5.5 323 8.2 103400 46
2011-03-21 15:33 51°14.955 2°54.508 5.2 321 8.2 103400 47
2011-03-21 15:34 51°14.786 2°54.715 5.2 321 8.2 103400 48
2011-03-21 15:35 51°14.614 2°54.91 4.2 323 8.1 103400 48
2011-03-21 15:36 51°14.44 2°55.102 4.7 326 8.1 103400 47
2011-03-21 15:37 51°14.265 2°55.29 3.5 324 8 103400 47
2011-03-21 15:38 51°14.118 2°55.412 -999 316 8 103410 47
2011-03-21 15:39 51°14.03 2°55.476 -999 316 8 103410 47
2011-03-21 15:40 51°13.956 2°55.528 -999 24 8.2 103410 47
2011-03-21 15:41 51°13.884 2°55.581 -999 250 8.4 103410 47
2011-03-21 15:42 51°13.814 2°55.64 -999 253 8.5 103410 46
2011-03-21 15:43 51°13.756 2°55.711 -999 256 8.6 103410 46
2011-03-21 15:44 51°13.718 2°55.785 -999 259 8.7 103410 44
2011-03-21 15:45 51°13.693 2°55.849 -999 265 8.7 103410 43
2011-03-21 15:46 51°13.675 2°55.897 0.1 268 8.8 103410 42
2011-03-21 15:47 51°13.667 2°55.937 0.1 29 8.8 103410 42
2011-03-21 15:48 51°13.663 2°55.957 0.1 26 8.9 103410 41